Wind_Gust
16 19 19 19 22 26 17 13 14 16 22 25 24 24 21 21 19 17 15 15 19 24 17 19 19 18 17 16 16 14 15 16 16 15 14 14 15 15 14 14 14 14 14 14 13 14 14 13 14 14 14 16 16 16 16 18 17 17 19 18 16 14 14 14 16 15 14 15 16 16 16 16 14 15 15 16 16 17 17 17 18 17 17 17 17 17
15 14 16 18 24 18 16 13 16 19 20 23 24 23 23 18 22 16 20 16 12 13 18 16 19 17 15 15 15 15 15 16 15 16 16 16 14 13 13 14 14 14 13 13 14 13 12 14 13 13 13 13 17 16 16 17 17 17 17 16 15 14 14 14 14 14 13 13 15 14 15 15 16 15 16 16 15 15 16 16 15 15 15 16 16 16
16 19 17 15 15 16 16 12 10 19 22 22 25 23 23 21 22 15 14 12 11 18 19 18 19 17 16 15 15 15 14 16 15 15 16 16 15 15 15 14 14 15 15 13 13 12 13 12 13 14 13 14 15 15 16 16 17 16 15 14 13 14 14 14 14 14 14 12 13 14 14 14 15 15 15 15 14 14 16 15 15 15 15 15 16 16
14 15 14 11 13 15 14 12 15 16 16 20 23 21 20 25 23 19 15 13 11 14 22 18 18 18 16 14 14 13 14 15 14 14 13 13 15 15 15 14 14 15 15 14 13 12 12 11 12 13 14 13 14 15 15 15 15 14 14 13 14 15 15 15 14 14 14 13 13 13 14 15 16 15 13 12 13 13 14 16 16 17 16 16 17 17
18 15 11 11 15 19 15 15 15 15 15 12 12 16 25 24 13 18 21 19 19 19 21 22 18 19 17 18 18 17 14 14 17 17 16 15 13 13 13 13 13 13 13 14 14 12 11 12 11 12 13 14 14 14 14 13 12 13 13 13 14 15 15 15 15 14 12 11 11 12 11 12 13 14 15 14 15 15 14 15 16 17 16 17 17 16
16 15 9 12 15 17 20 15 16 19 13 15 14 14 21 18 23 23 27 25 21 19 21 22 21 19 18 16 18 19 20 20 20 20 20 18 17 17 17 15 14 13 12 12 13 12 12 12 11 11 12 12 13 13 12 12 11 11 13 14 14 15 15 15 14 14 15 16 17 16 16 16 15 17 17 18 17 16 16 17 15 15 16 16 16 16
16 12 10 12 15 14 15 12 11 13 17 16 15 13 21 24 27 27 24 20 21 19 25 23 19 17 18 20 19 19 19 20 21 21 20 20 19 18 18 17 16 16 15 12 12 13 12 11 11 11 11 11 11 11 11 11 10 11 12 13 14 14 15 14 15 15 15 15 16 16 16 16 17 17 16 15 15 15 16 15 14 15 14 16 15 15
8 11 12 12 14 14 15 14 10 12 19 15 12 17 21 25 25 23 19 13 14 16 24 23 19 14 18 21 19 19 19 20 22 23 22 22 20 19 18 17 16 16 14 15 14 12 12 12 11 11 11 10 11 10 10 10 10 10 11 12 12 14 15 14 13 15 15 15 15 15 15 15 16 16 15 13 14 14 14 15 15 14 14 15 15 15
10 11 11 12 11 13 14 15 11 9 15 17 15 21 21 21 20 17 13 14 15 20 20 23 17 17 13 17 19 20 21 22 23 24 24 23 22 20 19 18 17 16 15 14 15 14 14 13 11 10 11 11 10 9 9 9 10 9 9 10 10 12 12 13 12 13 14 14 14 15 15 15 15 14 14 14 15 15 13 14 13 13 14 13 14 15
14 14 13 12 11 15 13 12 12 12 18 15 18 18 18 16 14 12 14 16 17 16 15 20 21 18 18 18 20 19 21 24 26 25 25 25 23 22 21 19 18 16 15 15 13 13 13 12 12 10 10 11 10 9 8 8 8 9 8 8 8 10 10 11 11 12 13 13 13 14 14 15 15 14 13 13 14 13 12 13 12 12 13 14 14 14
16 12 14 15 15 17 17 14 8 11 18 24 23 24 21 16 15 13 12 14 17 14 13 16 18 16 12 20 25 24 26 27 24 24 24 24 23 23 20 20 20 19 17 16 14 14 14 13 12 11 12 12 11 9 9 9 9 8 8 7 8 8 9 10 11 11 12 13 13 13 13 13 14 13 13 14 13 13 13 14 14 13 14 13 14 14
15 13 11 13 14 19 19 26 19 22 27 24 24 20 19 16 14 14 14 14 15 13 14 13 14 13 13 17 21 27 16 20 27 27 27 27 26 25 22 22 21 19 17 16 16 16 15 14 14 14 14 14 13 12 11 11 10 10 10 9 8 8 8 9 10 10 11 11 11 10 11 12 12 13 15 15 14 16 16 14 14 14 14 14 13 13
18 17 16 17 10 14 23 24 19 18 18 17 19 21 17 16 18 13 16 15 14 11 15 13 13 14 18 13 14 22 23 17 23 26 29 29 28 24 23 22 21 19 17 18 17 16 17 17 17 16 16 14 14 14 13 12 11 10 10 10 8 8 7 8 8 9 9 9 10 10 10 10 11 12 13 15 15 14 14 15 15 14 15 14 15 14
17 13 15 15 14 14 15 22 18 18 18 17 19 17 14 10 10 7 14 9 12 15 12 14 13 17 12 15 10 13 20 18 19 23 24 26 27 25 24 23 22 20 19 19 18 18 18 18 18 17 16 16 15 14 14 13 12 11 10 10 8 7 7 7 8 8 8 8 8 8 9 11 12 12 13 13 15 15 14 14 14 15 15 16 14 15
12 17 18 18 16 16 13 15 23 14 21 16 10 14 11 14 14 6 10 9 10 14 17 13 17 10 14 15 10 10 13 17 16 20 20 23 23 23 23 23 22 20 20 20 19 19 18 18 17 17 16 16 16 15 14 14 14 13 12 10 8 8 7 8 8 8 8 8 9 10 10 11 12 13 13 12 12 12 14 13 14 14 15 15 15 15
12 17 19 12 13 13 10 9 11 19 16 13 11 11 12 12 13 12 15 13 9 14 14 18 12 10 14 15 12 11 14 17 16 19 20 21 21 22 22 23 24 22 22 21 19 18 17 17 17 16 16 16 16 15 15 15 14 12 11 9 9 10 9 9 9 7 7 8 8 9 10 10 11 12 12 12 11 11 10 12 13 13 12 13 15 14
14 14 14 13 10 12 11 11 9 14 18 18 15 14 14 14 18 13 10 9 9 12 6 10 14 15 16 15 13 15 19 19 18 21 22 23 23 21 22 23 23 23 23 21 20 19 18 18 17 18 17 17 16 17 16 15 13 12 11 11 11 11 11 10 10 8 8 7 8 9 9 11 11 11 11 11 10 10 9 9 11 12 13 12 13 14
14 19 15 14 15 11 9 10 10 10 16 20 16 17 14 10 15 13 8 9 11 9 10 12 12 15 16 13 16 19 19 19 20 23 23 23 23 23 23 23 25 24 21 21 20 19 19 19 19 19 18 17 16 15 14 14 12 10 10 10 12 12 13 12 10 10 7 8 8 9 10 10 9 10 10 10 11 10 11 11 12 12 13 13 13 13
15 17 17 11 9 14 10 12 14 10 12 15 13 15 15 11 12 14 14 7 6 5 7 12 10 15 15 15 20 21 21 21 21 22 23 24 24 24 23 23 23 20 20 22 21 19 19 19 19 19 18 18 17 15 15 15 13 11 10 12 12 14 13 12 11 10 8 9 8 7 8 9 10 9 9 9 10 10 12 13 13 13 12 12 13 13
12 14 19 11 12 13 16 18 13 16 14 11 10 14 10 15 14 12 9 16 20 6 7 13 12 14 15 14 20 21 22 22 22 23 23 24 25 24 23 24 24 23 21 22 20 20 21 20 20 20 19 19 18 17 17 14 13 12 12 12 13 13 13 13 13 12 11 10 9 9 8 8 9 10 11 10 10 11 12 13 13 13 12 12 13 13
11 12 12 19 11 16 19 21 14 12 15 17 17 15 14 13 11 17 14 15 13 12 9 12 8 15 15 14 15 18 21 23 23 24 22 23 23 23 22 22 22 22 21 21 22 22 21 20 19 19 19 20 17 16 13 13 14 14 13 13 13 14 14 13 13 13 12 10 10 9 9 8 9 9 9 10 10 10 11 11 11 11 12 12 13 13
11 16 13 19 17 19 14 14 13 13 15 14 12 12 13 14 13 14 11 14 13 15 10 10 12 13 16 10 11 14 20 22 22 22 22 21 22 22 21 19 18 20 19 20 21 19 21 20 19 19 20 18 17 16 16 16 15 16 14 15 14 14 14 14 14 14 13 11 10 10 9 9 9 10 10 10 11 11 11 11 11 11 12 12 12 13
12 11 17 12 11 12 16 13 10 10 9 10 14 12 12 13 15 16 16 11 13 10 13 11 14 14 14 11 10 12 15 19 20 20 21 21 20 21 20 18 17 17 18 21 20 19 19 18 18 18 18 18 18 17 15 15 15 15 14 14 14 16 14 14 14 14 13 12 11 11 11 10 11 11 10 10 11 12 12 12 12 13 13 13 13 12
10 17 16 11 12 15 14 12 11 8 8 12 13 10 11 14 11 18 17 14 17 11 14 10 11 14 13 10 11 12 11 13 19 18 20 19 18 18 17 16 17 16 16 16 19 18 18 17 16 17 17 19 19 16 15 15 16 15 15 16 15 15 15 14 15 15 14 13 13 11 11 11 11 11 11 12 12 13 14 13 14 14 14 15 14 16
14 12 17 14 12 17 16 16 15 11 12 12 9 10 10 10 11 11 14 12 15 11 13 14 14 14 15 10 12 13 16 17 18 18 16 17 16 15 16 15 15 15 16 17 18 18 18 18 19 19 20 21 20 18 14 16 16 16 15 15 16 16 14 14 13 14 14 14 13 12 12 12 12 12 11 12 13 14 15 14 14 14 16 16 17 17
12 10 15 13 10 8 10 10 10 14 15 11 8 8 7 9 11 12 12 12 15 11 10 13 11 16 15 12 13 14 15 16 16 18 17 15 14 15 14 14 14 15 16 17 17 17 18 19 20 19 18 19 18 17 16 15 15 16 16 15 13 14 14 14 13 13 14 14 14 13 13 12 12 13 13 13 14 15 16 16 16 16 16 17 18 18
13 8 10 14 17 17 18 15 10 11 9 10 11 7 9 7 9 13 14 13 10 11 13 11 11 11 14 15 15 14 15 16 17 16 18 17 14 12 10 12 13 14 14 15 16 16 16 17 18 18 17 17 15 13 14 15 16 15 14 13 13 14 13 12 12 14 14 14 13 13 13 14 14 13 13 13 14 15 17 17 17 18 19 19 19 20
11 11 9 9 13 13 13 14 11 10 10 11 10 12 9 8 8 10 9 12 14 17 10 13 9 9 12 13 14 15 14 14 14 15 15 15 13 14 12 10 8 13 14 14 15 17 19 18 17 16 16 14 15 13 14 15 15 15 14 14 13 13 12 11 12 14 14 13 12 13 14 14 14 14 14 14 15 16 17 18 18 18 18 19 20 21
11 7 9 6 11 10 9 9 7 7 10 10 11 9 10 8 8 8 11 10 10 10 13 11 9 10 13 13 14 15 15 16 15 13 11 10 9 11 11 12 14 16 15 17 18 18 18 18 16 14 14 13 12 14 15 16 16 14 14 14 14 12 13 12 12 14 14 12 12 13 14 14 14 14 15 16 17 17 18 19 19 19 20 19 20 20
15 11 11 9 13 12 10 8 7 8 9 8 9 9 8 9 9 9 10 9 10 11 11 9 10 9 10 14 14 13 10 10 11 9 9 12 11 11 12 13 16 16 16 18 18 17 16 16 15 14 12 13 14 15 16 14 15 17 16 14 14 13 12 11 11 12 11 12 13 14 15 16 14 16 16 17 18 19 19 20 20 20 20 22 23 24
13 8 9 13 15 13 11 9 10 9 8 8 10 7 8 7 8 8 10 8 8 9 8 9 10 13 13 11 12 11 8 9 9 10 11 10 9 11 13 15 16 17 17 17 15 14 13 13 13 12 13 14 14 15 17 16 15 13 13 13 13 12 12 12 11 11 10 13 14 15 16 16 17 17 18 18 19 19 21 23 23 21 23 23 23 23
11 9 12 13 10 13 11 13 9 9 11 10 8 9 10 10 10 10 6 9 9 10 9 9 13 15 17 12 11 10 10 11 10 9 9 10 11 11 13 15 16 15 15 14 13 13 14 14 14 13 14 15 15 14 14 13 13 13 14 12 12 11 11 10 10 11 12 14 15 16 17 17 17 18 19 19 22 24 24 23 23 24 23 23 22 21
9 17 15 12 10 8 13 8 9 11 12 18 18 11 11 9 7 7 6 8 9 11 10 9 14 16 15 14 14 13 12 10 10 10 10 10 9 11 13 14 14 12 12 12 13 14 15 15 13 13 13 12 12 13 12 11 11 12 12 12 12 10 10 11 11 12 14 15 16 17 16 18 18 19 21 22 23 22 22 23 23 23 22 22 20 19
10 13 9 11 10 10 12 10 10 15 14 13 14 8 8 9 11 11 9 9 11 14 13 15 14 11 12 14 13 15 13 12 11 12 11 9 8 8 10 11 11 11 11 11 11 11 10 10 10 11 11 11 12 12 12 10 11 12 11 11 10 10 10 12 12 12 15 16 16 17 17 18 20 21 22 22 22 22 22 22 22 20 19 19 18 19
12 11 9 8 10 10 13 11 13 10 19 14 10 8 9 9 9 11 8 9 10 13 12 12 10 10 11 11 10 11 12 14 12 12 11 11 8 8 10 11 12 12 12 12 12 13 13 13 14 14 12 12 14 12 11 14 12 11 11 10 10 10 10 11 13 13 14 16 17 18 18 20 21 21 21 22 21 20 21 21 20 20 19 18 19 20
11 12 10 10 7 8 9 12 9 12 13 11 11 10 8 8 8 9 13 14 14 17 17 16 12 10 11 12 12 11 12 13 13 11 11 12 10 11 12 13 14 13 14 14 15 15 14 15 14 14 14 13 14 14 13 14 11 11 12 10 10 9 9 11 12 15 15 16 17 19 18 19 19 19 20 21 21 20 21 20 19 20 18 17 18 18
16 12 13 9 9 9 8 10 14 11 15 12 10 12 18 11 15 13 10 11 12 15 17 16 13 12 12 13 13 13 12 13 13 15 12 13 13 11 11 14 13 15 15 14 16 16 14 13 15 14 13 13 12 13 13 12 11 10 10 9 9 9 10 11 13 16 16 16 17 17 18 18 19 19 19 19 19 20 19 19 20 19 17 18 20 21
9 12 11 11 9 13 10 11 11 11 10 14 15 11 8 9 8 7 9 17 12 11 15 15 15 16 15 14 14 14 12 13 17 17 17 15 15 13 13 14 14 14 16 17 16 16 14 13 13 12 12 12 12 11 11 9 9 8 8 9 9 9 11 13 15 17 15 16 19 18 17 17 17 18 18 18 19 19 18 18 17 17 18 20 22 23
13 15 13 11 9 10 10 11 9 7 13 12 11 10 9 8 7 8 13 17 19 11 15 16 15 17 17 17 17 16 17 17 15 16 19 17 16 15 14 14 14 14 15 14 13 14 13 11 10 10 11 9 11 11 9 8 8 10 10 10 10 12 13 13 15 17 17 17 15 15 15 15 16 16 17 17 17 17 18 18 18 19 20 21 22 23
12 13 9 11 6 11 10 9 10 15 8 9 11 12 13 9 8 13 14 15 14 9 13 16 16 17 16 16 17 17 17 18 13 20 18 17 16 13 12 14 15 15 15 14 12 10 10 9 11 9 9 9 14 11 9 7 8 8 11 12 11 11 13 17 14 13 12 13 13 14 14 13 14 14 15 17 16 17 18 18 19 20 21 21 23 24
14 9 12 11 10 11 8 12 10 14 17 12 12 14 12 9 10 12 11 14 12 11 13 15 15 16 17 17 17 19 16 18 19 16 14 15 16 16 12 11 12 11 13 12 12 6 9 10 8 11 11 13 13 10 8 8 8 10 11 11 10 14 14 12 12 13 13 12 13 15 15 15 14 15 14 15 17 17 18 19 20 21 20 21 22 22
12 10 5 7 13 12 12 14 12 15 15 15 14 13 14 13 9 11 18 9 11 12 11 13 14 15 17 19 19 15 17 16 16 13 15 16 15 15 15 14 13 11 10 11 10 7 7 8 8 9 12 12 9 8 7 7 9 12 11 10 12 12 13 14 14 13 13 14 15 15 14 13 13 13 13 15 17 18 19 19 21 21 20 21 22 23
14 13 12 14 11 8 8 13 10 10 8 14 19 14 9 8 15 16 14 12 9 11 16 12 13 16 17 18 15 15 16 16 13 13 15 15 14 15 14 14 12 12 11 10 10 9 8 9 10 12 14 12 9 8 8 8 9 9 10 14 13 14 14 14 13 14 14 15 15 14 13 13 13 14 15 16 18 19 19 20 21 21 21 22 23 23
12 13 11 10 16 12 12 12 12 15 20 21 23 15 21 17 12 9 9 14 10 10 13 13 12 16 18 17 18 15 14 14 12 11 12 15 14 12 12 11 10 9 9 9 8 8 7 9 9 9 7 8 8 7 8 9 10 12 16 16 14 14 13 13 13 14 13 12 13 14 14 15 15 16 17 18 18 18 19 20 21 22 23 24 24 26
17 15 15 8 15 15 12 14 16 12 16 23 18 12 9 11 9 9 10 9 13 12 10 13 14 15 17 16 14 15 16 13 13 13 14 15 15 14 14 12 10 10 9 9 9 8 8 9 8 7 9 10 9 8 9 9 14 17 17 14 13 15 14 13 13 12 13 13 14 15 16 17 18 18 17 19 18 18 19 19 21 24 24 24 25 26
8 8 8 13 13 9 12 13 7 9 10 15 18 12 9 9 9 8 9 9 10 10 18 15 14 15 16 15 15 16 15 15 14 13 12 13 15 14 11 10 10 9 9 9 9 8 8 10 9 10 12 13 12 13 13 16 18 18 16 15 14 14 13 13 13 13 14 14 13 15 17 17 18 18 16 17 18 18 19 20 22 24 25 25 26 27
11 12 12 17 11 8 13 15 16 15 12 13 17 17 14 14 11 10 9 10 7 10 13 8 10 15 16 17 18 15 15 15 16 15 14 15 15 14 13 11 9 9 10 12 11 10 12 11 13 14 15 17 15 17 18 18 18 17 16 15 14 14 14 14 13 13 14 15 16 15 17 15 18 19 16 16 18 19 20 21 23 24 25 26 27 27
14 14 16 17 13 19 11 11 11 12 11 11 13 15 18 19 19 16 14 9 7 7 9 10 9 11 14 16 16 15 15 16 16 16 17 16 16 15 13 11 11 14 13 13 13 13 13 14 15 17 17 18 17 17 18 18 18 16 15 15 14 13 14 14 14 15 16 15 16 16 16 15 10 15 18 18 19 20 20 20 22 23 24 25 26 27
15 16 13 14 20 18 14 13 12 12 13 15 15 14 13 11 13 16 16 15 13 12 11 11 10 12 17 16 15 15 16 17 17 17 17 16 15 14 13 15 15 16 15 15 14 13 16 16 18 18 18 18 17 18 18 17 16 15 14 14 14 14 14 13 13 14 14 14 15 16 16 15 16 17 18 18 18 20 20 22 22 21 21 19 23 25
15 21 13 13 17 15 16 15 17 14 14 20 18 15 13 12 11 11 12 14 15 16 15 14 13 9 10 10 13 16 17 17 16 15 16 17 15 14 16 18 17 17 17 15 16 17 18 18 19 19 19 18 17 17 17 16 16 15 15 14 14 14 14 14 13 12 13 15 15 18 17 16 16 18 19 19 20 21 20 10 13 13 18 21 15 16
21 17 19 19 16 14 13 15 12 12 11 12 12 11 9 10 11 14 14 14 15 15 15 15 16 13 13 12 12 15 15 17 16 14 14 15 15 17 18 18 19 18 18 18 19 18 19 19 19 19 18 17 16 17 16 16 15 15 14 14 14 15 15 15 14 14 14 15 15 14 16 16 16 19 19 20 20 21 20 22 14 11 14 13 14 15
Wind_Speed
6 6 5 3 3 8 8 4 6 8 11 13 9 14 8 9 8 7 6 5 3 5 7 9 10 8 7 7 7 6 5 6 6 6 5 5 6 5 4 4 4 5 5 6 5 6 6 6 6 5 5 6 6 6 6 7 7 7 7 7 8 6 6 6 6 6 5 5 5 5 5 5 5 5 6 6 7 7 7 8 8 8 7 7 7 7
5 4 3 3 1 4 6 3 3 7 10 12 10 7 10 8 8 6 7 6 3 1 7 8 10 8 7 6 6 6 7 7 7 7 6 7 6 5 5 6 6 6 5 6 6 6 5 5 5 4 4 5 6 6 6 7 7 7 8 8 7 6 6 6 6 5 5 5 5 5 6 6 6 6 6 6 6 6 7 8 7 7 7 6 6 6
4 3 6 3 2 5 6 4 2 5 6 13 4 7 9 8 9 6 6 4 2 4 7 9 9 7 7 6 6 6 7 6 6 6 7 7 6 5 5 5 6 7 6 6 5 5 5 5 5 5 4 5 6 6 7 7 7 7 7 6 6 6 6 6 6 6 5 5 6 6 6 5 5 6 6 6 6 6 7 7 7 7 7 7 6 7
4 4 6 2 4 6 5 4 4 3 3 5 10 8 7 11 10 7 6 5 3 2 8 9 8 7 7 6 6 5 6 6 5 5 5 5 7 6 7 6 5 6 6 6 6 5 5 5 4 4 5 5 6 6 7 6 6 5 6 6 6 7 7 7 6 6 7 6 6 6 7 7 7 6 5 5 6 6 6 7 7 7 7 7 7 8
6 7 3 2 4 5 5 6 5 3 2 2 2 6 8 12 3 8 8 7 5 7 8 9 6 7 7 8 7 7 5 6 8 7 6 6 5 6 5 5 5 5 6 6 6 5 5 5 4 4 4 5 5 5 6 5 5 5 6 6 6 7 7 7 7 7 5 5 5 4 4 5 5 6 6 6 6 6 6 6 7 7 7 8 7 7
7 6 1 5 6 7 6 5 6 4 4 4 3 3 11 8 9 13 13 12 8 7 9 11 7 6 7 7 7 8 7 9 9 10 9 9 8 7 7 6 5 5 5 5 5 5 5 5 4 4 4 3 5 5 5 4 4 4 5 6 7 7 7 7 8 7 7 8 7 7 6 6 6 6 6 7 7 6 7 7 6 7 7 7 7 7
6 5 2 3 6 6 6 3 3 5 2 5 5 4 10 10 10 13 13 9 7 6 10 10 5 6 6 9 8 8 9 10 10 11 11 10 8 8 7 7 6 6 6 5 5 5 5 4 4 4 3 4 4 4 4 4 3 4 5 6 7 7 7 6 7 8 7 7 7 8 8 7 7 7 6 6 6 6 6 6 6 6 6 7 7 7
1 4 3 2 4 5 5 4 2 3 5 3 5 6 9 10 11 10 9 4 3 7 11 12 6 1 6 8 10 10 9 10 12 12 12 10 10 9 8 7 7 6 6 6 6 5 5 4 4 4 4 3 4 3 3 3 3 4 5 5 6 6 7 6 6 8 7 7 7 8 8 7 7 6 6 6 6 6 6 6 7 6 6 6 7 6
3 4 2 2 3 4 3 6 2 1 3 5 7 8 8 9 7 7 5 2 4 6 7 9 8 5 3 6 10 11 10 12 13 13 13 12 12 10 9 9 8 7 7 6 6 6 6 5 4 4 4 5 4 3 3 3 3 3 3 4 4 5 5 6 6 6 7 6 7 7 7 7 6 6 6 5 6 5 5 6 5 5 5 5 6 7
5 6 6 4 3 4 5 4 5 5 5 6 9 7 6 5 6 4 4 4 4 6 5 9 9 6 6 7 8 8 9 12 13 13 13 13 13 11 10 9 9 8 6 6 5 6 6 5 4 3 4 4 3 3 2 3 2 3 2 2 2 4 4 5 6 6 7 7 6 7 7 8 7 6 5 5 5 5 5 6 6 5 5 5 5 6
7 5 6 6 6 7 7 6 1 1 8 11 9 9 8 6 4 4 3 4 4 3 3 8 9 5 1 7 8 9 10 12 11 11 11 12 13 12 10 10 9 8 7 5 6 5 6 5 4 4 4 4 4 3 3 2 2 2 1 1 1 2 3 4 5 5 6 6 6 6 6 7 7 7 6 6 6 5 6 6 6 6 6 5 6 5
6 5 3 4 5 8 8 10 7 9 14 12 7 6 6 5 4 4 4 5 4 3 5 5 6 6 4 5 6 11 7 9 11 12 14 15 14 13 11 10 10 8 6 6 5 6 7 6 5 5 5 5 5 4 4 3 3 3 3 2 2 2 2 3 4 4 5 5 5 4 5 6 5 6 6 7 6 7 7 6 6 5 5 5 5 5
6 6 7 8 3 5 8 8 7 8 8 6 6 7 5 4 4 3 4 4 4 1 6 4 5 4 6 2 5 11 10 7 8 9 13 14 14 13 12 11 9 8 8 7 6 6 7 6 7 6 6 6 6 6 6 5 4 4 3 3 3 2 2 2 2 4 3 3 4 3 4 4 4 6 6 7 7 6 6 5 6 6 6 5 5 5
6 6 7 7 6 6 6 2 6 6 7 6 7 6 3 2 2 2 4 1 2 5 3 4 4 6 2 5 1 4 10 8 7 8 10 13 13 13 12 11 10 9 9 8 7 7 7 7 7 8 8 8 7 7 7 6 5 4 3 4 2 1 1 2 1 2 2 3 2 2 3 4 5 5 6 5 6 6 5 5 5 6 6 6 6 6
3 6 6 9 5 6 4 5 3 1 7 5 1 4 2 1 2 1 2 1 1 3 6 5 6 1 5 4 3 2 4 8 6 8 8 10 12 13 12 12 11 11 10 8 8 7 8 8 8 8 8 7 7 8 7 6 6 5 5 4 2 1 0 1 1 0 1 2 2 3 3 4 5 5 5 5 4 5 6 5 5 5 5 5 6 6
4 5 8 4 5 5 1 2 3 5 5 3 1 2 4 4 4 3 5 4 1 4 4 6 2 0 3 5 3 2 5 7 6 8 11 11 11 12 11 12 12 10 10 9 8 8 8 9 8 8 8 8 7 8 7 7 7 5 4 3 2 2 2 2 2 1 0 1 1 2 4 4 5 5 5 4 4 4 4 5 5 5 5 5 6 5
5 5 7 5 3 3 3 2 1 3 2 6 5 4 3 4 5 0 3 2 3 3 1 3 4 4 5 5 5 6 9 9 8 10 11 12 12 12 11 11 11 10 10 9 9 8 10 9 9 9 9 8 8 8 8 7 6 6 4 4 3 4 4 4 3 3 1 0 1 2 3 4 5 5 5 4 4 4 3 3 4 4 5 5 5 4
4 7 7 6 7 4 2 3 2 2 5 4 4 2 2 2 6 3 1 2 3 1 2 3 3 5 5 3 6 9 10 10 10 12 12 12 12 12 10 11 11 11 10 11 10 9 10 10 10 10 9 9 9 8 7 7 6 4 4 4 5 5 5 5 4 4 2 2 1 1 2 3 3 4 4 4 5 4 4 4 4 4 4 5 4 4
4 6 7 4 2 6 3 4 5 3 4 5 4 4 6 1 4 4 2 1 1 1 1 3 1 2 3 5 8 10 11 11 11 12 13 13 13 12 12 12 11 10 9 10 10 9 9 9 10 10 9 9 9 8 7 7 5 4 4 5 6 6 6 5 5 4 2 3 2 1 1 2 3 3 3 3 3 3 4 4 4 4 4 4 4 4
3 2 7 3 4 5 7 6 4 5 6 4 3 5 1 4 4 3 1 5 5 1 2 4 2 4 1 4 9 11 11 12 12 12 13 14 13 12 10 11 11 11 10 10 10 10 10 10 10 11 10 10 9 9 8 7 5 5 5 5 6 6 6 6 6 5 5 4 3 2 2 1 3 3 4 4 4 4 4 5 5 5 5 4 4 4
2 3 1 7 4 6 6 6 4 2 5 6 6 4 4 4 2 5 3 4 3 3 2 3 0 5 5 4 6 9 11 12 12 12 11 11 12 12 11 10 10 11 11 10 10 10 10 10 10 10 10 10 8 7 6 5 6 6 6 6 6 7 7 7 6 6 5 4 4 3 3 2 3 3 3 3 4 4 4 4 4 4 4 4 4 5
1 5 0 7 6 7 4 6 5 5 6 4 2 4 3 4 4 5 2 3 4 3 3 3 2 4 5 2 2 6 10 11 12 12 11 11 12 11 10 10 10 9 10 10 9 9 9 9 10 10 9 9 8 7 7 7 7 8 7 6 6 6 6 7 7 6 6 4 4 4 4 3 3 4 3 3 4 4 4 4 4 5 5 5 4 4
3 2 2 3 2 2 7 5 3 3 1 3 5 4 4 5 5 5 5 3 3 1 4 2 4 3 4 3 2 2 6 10 10 11 11 11 11 10 10 10 9 8 8 9 9 9 9 9 9 9 10 9 9 8 8 7 7 7 7 7 7 7 7 6 6 6 5 5 5 5 5 4 4 4 4 4 4 5 5 5 5 5 6 6 5 5
2 5 4 1 3 6 6 4 3 1 1 4 4 1 3 5 4 7 6 4 6 1 4 2 3 4 5 2 2 3 3 5 9 9 10 9 9 9 9 8 9 8 8 8 8 9 9 9 9 8 9 9 9 8 8 7 7 7 7 7 7 8 8 7 6 6 6 6 6 5 5 5 4 5 5 5 4 5 6 6 6 6 6 7 6 7
4 3 5 3 3 5 6 6 5 4 4 3 2 3 3 3 4 4 5 4 4 3 4 4 4 3 6 2 4 4 7 7 8 8 8 8 7 7 8 7 6 7 7 8 9 10 10 10 10 9 10 10 10 8 7 7 8 7 7 7 7 8 7 7 6 6 6 6 6 6 5 5 5 5 5 5 5 6 7 7 6 6 7 7 8 8
3 2 4 3 3 2 3 2 1 4 4 3 1 1 0 1 2 4 4 3 5 3 3 4 1 6 6 5 5 6 7 8 7 9 8 6 7 7 6 6 6 6 7 8 9 9 10 10 9 9 10 9 8 8 7 7 7 7 8 7 6 7 7 6 5 5 6 6 6 6 6 5 6 7 6 6 6 6 7 7 7 8 8 8 9 9
1 1 2 5 6 5 7 6 3 4 2 2 5 1 2 1 2 5 4 4 2 2 4 2 3 3 6 7 7 6 7 8 9 8 9 8 7 5 4 4 5 5 6 8 8 8 8 9 10 10 9 8 8 6 6 6 7 7 6 6 6 6 6 5 4 5 5 6 6 6 6 7 7 6 6 6 6 7 7 8 8 9 9 9 10 10
3 3 2 3 6 6 6 7 5 4 3 3 3 5 3 1 2 4 3 4 5 5 2 5 2 2 4 5 7 7 7 7 7 7 8 7 6 5 4 4 4 5 6 6 8 9 10 9 9 9 9 7 7 5 6 6 7 7 6 6 6 5 5 3 4 5 5 5 5 5 7 6 6 7 7 7 7 8 8 9 9 9 9 9 10 11
4 1 2 0 4 4 3 4 2 1 4 4 4 3 4 2 1 2 5 4 4 3 4 4 1 2 4 5 7 7 8 8 7 6 3 3 3 4 4 5 6 7 7 8 8 8 9 9 8 7 7 6 5 6 7 7 7 6 6 6 6 5 5 4 4 4 5 4 5 5 5 6 6 6 7 8 8 9 9 9 10 10 10 10 10 9
3 3 4 2 6 5 4 2 1 1 3 2 3 3 2 2 3 3 4 2 4 5 4 2 3 2 3 6 6 6 4 3 4 2 3 4 4 4 5 5 5 6 7 8 8 8 8 8 8 7 6 6 6 6 7 6 7 8 7 6 5 5 4 3 3 3 3 4 4 5 5 6 6 7 7 8 9 9 10 10 10 10 10 12 12 13
4 2 4 6 6 5 4 3 2 3 3 2 3 1 2 1 1 2 3 2 2 3 2 3 4 5 4 3 5 4 2 2 2 3 2 0 1 1 3 4 5 5 5 5 5 5 5 6 5 5 5 5 5 5 6 7 7 6 5 4 3 3 4 3 3 3 3 4 4 5 6 6 6 7 9 9 9 10 11 12 12 11 12 12 12 12
3 3 4 5 3 5 4 3 3 3 4 4 3 3 4 4 4 4 1 2 3 3 3 3 6 5 7 5 4 3 3 4 3 2 1 1 1 1 2 3 4 4 4 4 3 4 5 5 5 4 4 4 5 5 4 3 4 3 3 2 3 3 2 1 1 2 2 3 4 5 7 7 7 8 9 10 11 13 13 12 12 13 13 12 12 11
2 5 5 3 3 2 5 3 3 5 5 8 8 5 5 4 1 1 1 1 2 1 4 3 2 7 7 6 6 6 5 4 3 3 3 3 2 2 3 4 5 3 2 2 1 2 2 3 2 2 1 2 1 1 2 1 1 1 1 2 2 3 1 1 0 1 3 4 5 6 6 7 8 9 10 12 12 11 11 12 12 12 11 11 10 9
3 5 2 3 3 3 5 4 4 6 5 0 5 2 2 3 4 5 3 3 3 6 3 5 5 4 5 6 6 7 6 4 3 5 4 3 2 2 2 2 3 3 4 4 3 2 3 3 3 4 5 5 5 5 5 4 4 4 3 3 2 1 1 0 1 1 3 4 6 6 7 8 9 11 11 12 12 11 11 11 10 9 9 8 9 8
5 4 1 2 3 2 5 4 5 4 3 5 3 3 1 2 3 5 3 2 3 5 5 5 3 3 4 4 2 4 5 6 5 5 5 4 2 2 3 4 5 5 6 6 6 6 7 7 7 7 6 5 7 5 5 5 4 4 4 3 3 2 1 1 2 2 3 5 6 7 8 10 11 11 11 11 11 10 10 9 9 9 8 8 8 8
3 3 2 1 0 1 2 3 2 1 6 4 4 4 3 1 2 3 7 7 7 7 6 7 5 4 5 5 5 4 5 6 5 4 4 5 3 3 4 5 6 6 6 7 8 8 7 8 7 7 7 6 6 5 5 6 4 3 4 3 3 2 1 2 3 4 5 6 8 9 9 9 10 10 9 9 9 9 9 9 9 9 7 8 8 8
4 2 3 2 0 2 2 2 3 4 6 6 3 5 6 3 6 5 3 2 6 6 7 6 6 5 5 6 5 5 5 5 5 6 5 6 6 4 4 6 5 7 7 7 8 8 7 7 8 8 7 6 5 5 5 4 4 3 3 2 2 2 2 2 4 6 6 7 7 8 8 8 8 8 8 9 9 10 10 9 9 8 7 9 9 10
2 3 2 2 2 4 3 3 3 3 2 2 5 5 2 3 3 1 2 6 6 4 6 6 7 8 7 7 7 7 6 4 7 6 8 7 7 7 5 6 6 7 7 9 8 8 7 7 6 6 5 6 5 5 4 3 2 1 1 1 2 2 4 5 6 6 6 6 7 7 6 6 7 8 8 9 9 9 8 8 8 8 8 10 11 11
1 4 3 3 2 3 3 3 2 2 0 4 5 5 4 1 1 1 5 5 7 4 5 6 7 9 9 8 9 8 7 6 4 6 9 9 8 7 7 6 6 6 7 7 6 7 6 5 4 4 5 3 4 4 3 2 1 2 2 2 3 4 5 5 5 5 5 6 6 5 5 6 7 7 8 8 8 8 9 9 8 9 9 10 11 11
5 4 2 3 1 3 3 3 2 0 1 4 5 5 5 2 2 5 5 2 7 3 3 5 7 9 8 8 9 8 7 7 2 8 9 9 8 6 5 6 7 7 7 6 5 4 4 3 4 3 3 3 4 3 3 1 1 2 3 4 4 3 4 4 4 5 4 5 5 5 6 5 6 6 7 8 8 8 9 8 9 10 10 10 10 11
5 2 3 4 3 4 2 3 2 2 4 6 6 7 5 4 3 4 3 4 5 4 3 4 6 8 9 9 8 7 4 7 8 8 7 8 8 8 5 5 5 4 5 5 4 2 2 3 0 1 2 3 2 1 1 1 1 3 2 3 3 3 4 4 4 5 5 4 5 6 6 6 6 7 6 7 8 8 9 8 9 10 10 10 10 10
4 3 1 1 4 4 4 4 3 2 5 7 6 7 7 6 3 2 5 3 5 5 4 4 6 8 9 8 8 3 8 8 8 6 8 8 8 7 7 7 6 4 4 4 4 1 1 1 2 1 2 3 1 1 1 0 1 1 2 2 5 5 5 5 5 5 5 6 6 7 6 6 6 5 5 6 8 9 9 9 10 10 10 9 11 12
4 3 3 4 2 1 2 4 2 4 3 8 11 6 2 3 3 6 6 5 3 4 5 5 5 7 7 8 6 6 8 8 6 6 8 8 7 7 7 7 6 5 5 4 4 3 1 2 1 1 1 1 1 0 0 0 0 2 4 6 6 6 6 6 5 6 6 6 6 6 6 5 5 6 6 7 8 9 9 9 10 11 10 11 12 12
4 4 3 2 4 3 3 3 2 2 8 12 12 3 9 6 4 2 1 6 4 3 5 5 5 6 8 7 8 7 7 7 6 5 5 8 7 6 6 5 4 3 3 2 1 2 1 1 0 1 2 1 1 0 1 1 2 5 8 8 6 6 6 6 6 6 5 5 5 6 5 7 7 7 8 9 9 9 9 10 10 10 10 11 12 12
7 5 3 2 5 4 2 2 6 5 7 11 9 5 3 5 3 1 3 3 5 4 3 5 6 7 8 7 7 8 7 7 7 6 6 8 8 7 7 6 4 4 2 2 2 2 0 1 1 1 3 3 3 2 2 3 7 9 9 7 6 6 6 5 5 5 5 5 5 6 7 8 8 8 8 9 9 9 9 10 11 11 11 11 12 12
2 1 2 4 4 3 4 2 2 2 3 7 9 3 1 3 3 1 1 3 2 3 5 4 7 7 8 7 7 7 7 8 7 7 6 7 8 7 5 4 3 2 2 1 2 2 2 3 3 4 6 6 6 5 6 8 9 10 8 7 6 6 5 5 5 5 5 5 6 7 8 8 9 9 7 8 8 8 8 9 10 11 11 11 12 12
4 4 4 6 3 1 2 8 8 7 5 6 8 9 6 4 2 3 3 3 1 2 4 2 3 7 8 9 9 8 8 8 8 7 7 7 7 7 6 5 2 2 2 4 5 4 4 5 6 7 8 9 8 8 9 10 9 8 7 7 6 6 6 6 5 5 6 7 7 7 8 7 8 8 7 8 8 8 9 9 10 11 11 11 12 12
6 6 6 8 5 7 3 4 4 5 5 4 5 6 9 10 10 8 5 2 1 1 1 3 3 5 7 8 8 7 8 9 9 8 8 8 7 7 6 4 5 7 6 6 6 6 7 7 8 9 9 9 8 8 9 9 8 7 7 6 6 5 5 5 6 6 7 7 7 7 7 6 6 7 8 8 8 9 8 9 10 10 10 11 11 12
5 7 3 5 7 8 7 4 4 5 6 8 7 7 4 3 6 9 9 8 6 5 4 4 4 4 6 6 8 8 8 9 9 9 9 8 7 6 5 7 8 8 8 8 7 7 7 9 10 10 10 9 8 9 9 9 8 7 7 6 5 5 5 5 6 6 7 6 6 7 7 6 7 7 8 8 8 8 8 9 9 9 9 10 10 10
5 8 4 4 6 5 5 5 9 4 4 9 10 8 7 5 4 5 5 7 8 9 7 7 6 3 4 4 6 8 9 9 8 8 9 8 8 7 9 9 9 9 9 8 8 9 10 10 11 11 10 9 8 8 8 8 7 6 6 6 5 6 6 6 5 5 6 6 6 8 7 6 7 8 8 8 8 9 9 4 6 6 7 8 10 8
9 8 7 7 5 4 4 3 5 5 4 3 5 5 4 4 5 7 7 7 7 8 8 8 8 6 6 5 5 7 8 9 9 8 7 7 7 9 9 10 10 9 9 10 11 10 10 11 11 11 10 8 8 8 8 7 6 6 5 6 6 6 7 7 5 5 5 6 6 6 7 7 7 8 8 8 9 9 9 9 3 10 7 7 5 6
Wind_Direction
182 179 185 187 164 169 161 184 8 43 74 97 118 129 181 122 110 106 125 138 202 130 102 107 112 117 127 129 121 127 146 147 154 147 157 160 152 145 140 141 130 120 113 102 101 92 88 92 87 84 80 81 81 75 76 77 74 70 75 77 68 60 50 46 51 45 40 50 66 62 59 60 57 53 60 54 42 41 40 29 26 24 22 24 24 22
228 222 183 66 333 146 116 110 56 82 124 103 135 152 119 123 121 133 132 152 137 291 119 119 122 117 121 135 137 144 164 166 172 170 172 166 157 148 152 157 143 117 122 132 114 105 103 94 92 83 87 91 86 80 76 77 76 74 74 74 75 68 62 56 52 56 48 39 39 38 42 42 40 42 40 43 44 39 41 28 25 19 11 12 26 25
209 235 72 85 93 102 129 118 81 90 116 126 137 128 121 110 114 116 125 148 163 162 126 145 129 130 137 142 149 168 169 164 178 181 171 169 157 159 173 163 150 150 139 120 110 103 99 94 88 85 81 86 94 97 93 90 92 90 83 75 72 69 66 59 48 47 49 48 38 37 41 37 72 56 40 45 39 40 40 32 24 28 21 12 22 20
215 126 72 116 153 159 149 149 141 147 150 138 146 178 131 139 160 147 150 177 148 191 145 154 143 134 144 146 151 173 170 165 173 186 169 181 169 175 185 171 166 154 146 138 129 109 95 93 99 102 102 101 110 113 106 96 92 89 79 79 81 77 69 63 55 56 59 56 59 59 60 57 37 36 52 55 51 49 38 42 36 36 31 31 28 25
46 38 12 183 193 198 184 177 183 201 142 156 185 109 125 167 145 135 147 149 133 109 145 157 146 150 169 169 171 173 184 180 183 190 185 189 201 190 191 177 186 155 149 139 134 129 121 106 87 88 102 124 113 102 96 87 77 79 81 83 79 74 66 58 49 45 47 68 74 72 74 62 62 52 45 38 46 38 43 43 40 38 35 32 33 33
95 53 327 197 196 205 196 192 203 242 163 150 27 114 155 169 120 125 139 141 142 144 176 178 152 176 172 193 188 158 182 193 188 195 192 185 193 196 202 188 176 169 147 140 134 129 116 105 104 102 110 97 100 93 86 84 80 80 88 85 77 68 58 54 49 46 50 53 50 48 42 40 42 49 41 42 27 31 35 37 40 38 25 33 26 22
41 48 332 189 195 189 199 220 93 265 229 196 108 118 137 138 135 142 150 169 150 173 176 205 266 126 168 194 196 180 192 189 181 204 195 189 189 196 198 183 179 177 152 148 135 136 126 123 123 127 118 111 95 89 99 105 99 92 88 79 68 62 60 52 48 44 50 55 57 51 50 48 44 48 54 47 42 29 39 36 30 43 27 22 30 22
46 71 113 165 169 180 185 203 130 265 265 112 118 149 141 138 145 157 170 226 68 84 161 207 237 247 173 195 187 186 201 198 192 198 201 194 194 194 194 181 187 181 159 157 152 144 140 140 144 124 123 124 108 116 118 107 111 99 81 73 67 63 56 48 44 56 49 56 58 58 54 51 51 47 54 49 51 44 41 38 29 27 34 29 22 23
355 86 67 132 177 195 96 48 69 319 338 93 163 161 153 151 155 168 205 207 137 164 157 200 213 242 181 147 170 178 200 209 208 203 202 200 195 190 193 189 188 186 159 158 149 154 147 149 135 129 126 108 124 127 106 108 102 102 90 77 72 63 58 57 54 54 57 56 54 51 50 50 45 43 35 46 37 37 23 32 23 21 18 27 23 18
69 22 41 3 273 96 84 80 75 90 113 125 146 148 127 137 178 189 206 189 173 222 178 186 194 245 140 150 172 183 221 212 209 206 204 200 196 192 192 194 190 179 167 157 141 142 141 141 139 126 121 135 127 131 135 122 123 111 99 85 66 70 59 61 63 62 59 55 53 54 50 43 42 30 31 25 27 15 15 8 18 7 15 7 19 12
84 58 45 26 47 83 102 96 51 38 100 143 148 140 152 157 183 186 219 193 184 227 163 167 177 259 247 175 181 184 212 218 204 198 199 198 196 195 192 195 192 182 170 161 147 141 144 142 148 155 155 149 152 158 174 157 167 138 163 150 121 74 75 67 64 60 62 56 47 47 42 39 31 24 22 15 15 8 15 7 14 10 11 5 12 2
121 133 137 75 106 114 105 89 77 117 135 153 154 154 158 156 169 198 185 201 232 198 124 149 188 179 253 134 177 193 198 209 208 197 192 193 192 190 188 193 194 180 170 163 161 157 147 152 172 174 182 184 182 188 183 189 189 194 194 201 178 135 84 74 67 66 57 55 54 44 29 32 23 18 10 11 8 6 13 7 15 9 5 9 7 6
99 81 103 122 139 163 131 106 114 137 156 182 165 165 175 161 183 195 183 204 210 204 120 165 182 209 245 30 136 181 200 199 208 201 190 189 187 186 186 192 190 174 178 173 170 161 160 173 179 188 197 198 197 196 193 194 196 199 204 213 203 118 100 73 62 56 67 59 50 27 21 17 14 13 6 4 7 11 8 7 11 4 7 3 0 6
95 113 156 128 175 224 267 185 129 177 197 188 190 177 215 182 191 189 196 185 168 116 129 179 167 253 105 132 129 171 190 192 194 202 192 185 184 184 185 190 185 182 180 179 176 173 172 175 184 192 200 201 192 195 195 198 201 201 209 207 230 120 72 48 48 40 64 75 48 34 10 7 1 6 2 6 6 9 9 5 10 4 8 1 358 360
150 167 151 184 142 161 214 351 167 141 174 178 187 216 330 288 324 279 183 175 126 108 142 149 211 190 203 94 141 174 187 185 181 192 181 178 183 182 187 188 182 184 180 183 180 180 172 177 189 194 199 203 195 192 194 199 205 207 208 203 214 245 114 310 315 229 33 55 47 23 18 6 358 355 0 7 9 5 2 4 3 9 3 5 359 357
1 63 107 55 55 177 151 58 302 137 155 142 213 298 255 42 334 331 11 351 120 141 164 170 241 58 65 131 114 179 178 180 176 183 171 173 176 179 184 185 186 187 183 183 182 181 177 176 190 195 202 206 202 194 196 203 201 207 220 203 241 287 294 281 279 278 302 47 32 42 18 11 6 359 360 2 8 359 355 356 357 6 6 9 359 356
192 125 131 126 151 195 81 159 171 249 256 145 205 222 40 4 304 62 172 6 329 258 147 157 205 182 120 157 124 152 163 162 170 173 175 172 174 177 183 185 189 188 183 184 187 183 182 179 189 198 201 209 208 200 199 207 204 200 208 216 233 258 260 261 268 275 262 230 328 24 17 12 6 3 0 358 356 350 343 348 356 3 6 3 360 355
309 108 145 174 156 144 43 345 118 162 338 143 227 103 66 285 310 286 327 154 245 270 117 218 233 153 203 146 153 156 162 162 171 174 175 172 175 182 183 187 189 189 185 186 187 186 188 184 187 199 201 205 207 213 200 202 204 197 222 246 258 251 265 268 268 272 255 268 290 337 4 11 2 350 354 354 350 347 345 0 358 4 4 2 357 352
261 150 150 189 49 133 167 207 170 195 299 317 21 50 260 192 199 163 274 289 314 360 85 139 203 231 250 128 167 179 171 168 169 173 175 176 180 185 185 190 192 188 187 188 188 192 189 186 191 200 206 205 206 212 215 200 205 216 217 233 245 261 268 278 282 277 262 246 248 276 345 349 340 336 337 351 343 335 344 355 360 2 355 350 342 348
226 273 129 151 213 143 201 217 228 174 185 233 274 247 215 272 302 278 352 338 292 323 286 124 216 77 77 114 182 173 176 170 167 173 179 178 183 185 186 189 189 192 193 191 191 194 192 189 196 198 206 211 207 204 207 217 222 222 229 239 246 253 257 261 263 262 261 249 246 251 294 302 314 328 342 350 345 342 348 352 354 357 345 343 333 342
195 309 168 129 132 180 200 198 259 179 189 185 212 214 188 243 9 293 263 265 306 321 319 328 342 94 69 51 161 158 171 172 173 176 176 175 181 184 186 188 191 191 191 191 189 195 197 193 199 202 206 216 211 208 216 213 215 229 241 245 246 250 256 256 257 261 259 255 252 244 272 304 282 292 300 323 331 320 333 339 338 342 332 329 332 334
220 209 165 144 167 220 82 65 18 336 333 309 265 235 244 230 225 249 230 175 248 266 331 310 333 93 84 100 110 147 163 173 174 172 173 175 175 180 182 187 190 189 190 195 194 195 197 200 203 207 208 216 219 223 220 219 237 245 240 246 249 248 254 258 257 258 259 247 241 246 260 263 277 277 304 318 319 319 320 323 329 324 321 322 324 324
326 299 191 194 183 71 91 92 33 350 307 351 299 323 332 294 281 262 278 105 246 190 301 303 293 86 77 78 118 116 157 166 172 169 169 172 173 178 181 184 190 198 193 192 196 199 201 206 205 213 218 214 218 223 231 243 242 245 247 250 249 256 258 261 263 259 258 250 240 239 247 259 271 279 278 293 304 310 314 313 312 311 310 311 319 312
267 231 174 160 122 125 122 125 133 122 239 212 182 282 258 270 293 297 307 339 301 331 248 202 254 96 107 84 113 132 141 167 166 176 171 172 170 176 181 183 190 196 199 199 201 201 204 209 211 214 219 227 227 225 225 230 238 239 243 247 251 252 259 263 259 256 247 241 240 238 248 259 271 278 289 299 308 309 307 305 300 302 299 305 306 303
221 153 277 169 206 183 173 176 184 159 229 259 331 74 321 291 271 276 287 273 267 272 308 290 287 113 128 134 136 167 168 167 172 176 183 175 179 182 184 185 190 197 200 202 203 205 208 210 214 216 222 228 232 230 226 235 241 242 241 244 248 256 257 262 258 257 250 244 244 240 249 257 271 282 290 292 299 298 300 299 298 296 297 295 292 296
256 142 219 233 227 242 254 240 131 173 178 102 70 109 226 258 155 223 228 181 249 137 228 260 291 88 107 146 143 155 163 162 171 173 184 192 185 190 189 188 195 198 203 202 202 205 212 217 220 224 229 235 233 238 233 229 238 247 249 243 240 252 253 253 255 248 245 242 242 250 255 266 282 293 296 299 300 299 297 297 295 297 291 291 291 291
126 125 296 311 318 345 34 62 73 333 185 195 107 147 117 183 309 288 293 256 292 90 249 118 350 85 130 148 149 150 163 160 161 174 182 185 188 183 174 189 196 200 202 203 204 206 211 218 223 225 225 233 240 235 245 253 257 254 252 250 242 249 248 244 239 241 239 239 247 261 284 300 306 305 303 301 298 296 293 293 295 291 296 300 296 292
185 187 70 6 40 41 45 77 59 352 70 111 149 106 131 208 270 294 306 3 9 273 230 76 101 251 136 138 131 146 149 156 158 162 169 170 177 191 185 183 193 208 206 205 203 208 214 218 221 225 229 228 229 230 240 250 257 263 259 258 253 245 224 211 219 239 240 238 244 258 289 302 302 304 306 301 295 292 289 288 287 286 285 286 287 292
243 162 108 260 80 67 52 83 40 30 50 74 81 94 96 106 224 5 53 47 324 330 9 53 127 199 136 128 133 144 158 157 157 146 135 136 169 181 191 212 217 218 214 216 216 215 221 222 222 224 223 222 230 238 249 258 258 245 244 246 249 240 216 200 215 236 241 239 256 285 298 294 297 301 302 292 292 290 287 286 286 285 289 290 291 291
260 94 140 157 132 120 115 120 167 189 128 174 107 92 63 56 63 56 86 82 12 22 6 37 149 79 114 134 131 104 103 122 121 134 177 206 221 241 244 240 243 235 225 228 225 223 222 227 224 218 215 227 239 254 264 265 264 262 252 246 238 216 204 193 203 236 243 262 285 289 293 302 300 296 300 294 291 296 300 302 303 301 294 297 302 305
280 114 175 175 164 128 113 149 190 219 210 199 144 179 166 135 117 80 129 148 240 134 71 136 155 177 121 93 113 102 92 116 147 179 196 338 264 265 263 257 258 262 255 241 234 229 223 223 222 215 223 237 258 267 272 271 275 278 278 272 243 216 177 184 188 222 268 294 301 307 301 294 298 300 297 306 303 304 305 313 316 308 301 302 304 304
258 108 201 206 213 150 152 174 176 217 241 261 236 211 207 210 205 159 180 122 297 68 126 179 203 172 130 143 133 135 167 186 173 161 144 180 162 121 295 289 281 279 275 266 235 213 214 219 216 226 238 260 264 263 269 283 283 267 268 229 220 162 164 155 211 281 287 303 307 295 299 306 305 302 306 307 313 316 319 315 310 308 308 309 310 310
169 152 184 196 228 137 129 191 197 229 242 235 216 197 207 200 331 77 151 196 254 294 194 225 51 66 117 152 166 165 175 150 158 166 141 115 58 358 327 319 312 315 323 307 269 221 209 225 197 166 180 216 104 49 64 57 45 46 61 117 142 117 121 147 220 287 301 309 300 301 307 300 300 308 314 320 319 317 309 309 308 313 319 317 316 310
199 206 195 184 255 133 148 175 217 236 238 97 67 45 310 245 213 236 208 196 183 226 349 5 45 99 145 171 191 159 176 152 118 88 49 43 90 85 38 24 11 43 55 67 81 96 103 106 103 101 97 86 82 72 68 62 68 78 83 95 107 98 115 283 183 297 310 307 303 305 302 308 318 319 319 316 313 312 313 316 324 326 320 316 313 312
182 193 162 148 253 152 153 192 224 245 250 82 124 88 277 278 279 265 288 252 211 219 242 239 190 171 173 175 129 110 116 113 112 125 126 103 74 64 89 91 87 71 76 87 89 90 96 100 104 104 114 103 92 103 108 102 109 116 118 122 99 80 33 355 320 301 298 295 299 307 318 323 322 318 316 317 321 323 323 329 330 325 323 321 319 318
164 185 145 183 293 89 212 209 234 223 64 133 111 105 91 230 234 258 265 235 216 213 213 226 192 161 163 159 139 127 125 126 138 137 125 129 136 131 127 111 106 109 102 98 104 108 114 112 112 109 103 114 118 98 89 92 103 101 88 62 54 51 11 327 304 294 293 308 319 324 327 319 317 321 329 333 333 328 331 334 329 326 328 326 320 320
206 142 197 158 308 242 236 220 257 16 267 173 174 176 190 188 181 212 268 180 157 197 205 212 192 168 163 153 146 144 138 163 199 154 148 136 135 121 102 105 112 108 111 109 107 104 97 103 101 94 96 86 80 88 81 85 72 59 52 52 41 343 325 309 296 299 322 327 324 322 322 331 337 345 342 338 330 333 336 332 330 330 334 325 324 320
208 252 136 230 175 262 258 244 226 221 256 135 78 97 146 22 6 341 262 253 162 180 197 209 201 176 170 157 153 153 171 204 234 174 145 138 139 134 120 119 120 117 117 115 113 114 102 89 93 95 94 100 90 85 95 87 87 65 12 345 338 322 305 309 323 347 339 324 328 339 355 360 357 351 344 335 338 340 335 332 330 330 333 326 324 321
206 278 231 254 152 206 239 263 253 264 327 40 101 119 133 82 196 177 254 241 123 153 177 214 202 178 175 166 156 160 194 229 244 105 135 144 151 151 149 132 122 120 118 114 108 102 106 100 85 102 101 101 101 80 68 54 43 266 316 325 323 319 326 337 343 331 340 350 8 12 17 10 4 354 345 342 346 341 335 333 332 330 330 327 323 326
193 191 193 216 195 214 254 250 267 180 243 123 116 141 138 155 193 235 256 132 108 139 157 201 194 174 170 164 165 184 204 236 225 109 131 153 149 145 144 135 136 143 135 126 114 100 98 121 149 146 115 103 93 86 72 33 303 329 302 335 330 333 342 358 357 5 23 33 26 22 14 16 10 2 352 347 345 339 334 331 332 335 333 332 331 335
194 207 221 254 245 142 219 268 296 220 156 130 134 133 133 158 219 236 246 86 91 103 160 182 185 170 161 163 178 195 199 52 71 106 133 143 145 148 146 133 138 143 137 140 115 128 182 156 171 73 98 101 88 73 62 347 336 304 354 335 330 5 30 41 47 43 43 29 27 20 18 18 12 358 352 349 343 337 333 340 341 340 338 336 338 334
210 196 210 254 251 246 215 252 263 327 85 125 113 132 145 174 207 239 71 71 91 112 131 172 163 165 168 174 180 254 97 92 79 116 154 158 158 155 162 160 159 145 100 89 99 158 200 187 122 156 131 94 90 111 172 236 286 323 14 19 54 57 59 63 58 46 36 25 26 24 18 17 9 352 349 346 345 343 344 349 347 344 340 339 336 331
177 204 214 198 194 258 242 253 266 260 137 156 128 129 196 233 27 75 112 86 83 107 142 153 166 161 178 173 178 115 130 126 119 115 152 163 163 163 167 170 175 181 169 167 175 143 231 238 218 139 102 96 71 20 30 105 146 102 89 82 75 71 67 61 49 42 39 29 27 23 9 6 4 359 356 355 353 352 350 352 348 343 342 340 335 334
73 246 229 170 182 259 197 215 234 57 124 160 163 187 187 232 37 82 187 148 131 159 151 150 161 170 182 177 166 146 145 146 142 141 146 167 174 164 169 168 167 162 163 148 129 114 110 283 272 109 93 71 77 93 128 176 133 96 94 88 83 78 74 63 51 41 40 36 26 12 4 1 3 7 6 1 358 354 351 353 348 343 345 342 339 342
168 258 356 306 138 235 307 15 70 81 147 180 205 22 107 150 95 50 346 64 154 159 182 164 155 172 187 187 177 166 158 160 148 154 164 168 178 184 181 181 184 180 175 149 123 117 248 321 45 63 83 69 75 69 87 94 102 100 92 86 84 77 69 63 54 43 32 23 22 11 7 9 8 4 12 1 357 353 351 352 348 345 346 345 347 348
49 48 48 284 211 235 277 254 94 144 165 190 215 207 120 142 155 240 246 194 163 122 179 183 154 171 181 189 187 178 186 165 162 158 161 170 178 173 171 158 156 159 169 156 136 101 78 90 92 94 87 78 77 80 79 88 97 97 94 91 84 75 67 54 49 43 28 23 21 21 11 13 9 360 7 3 354 354 354 353 351 350 349 351 355 355
169 163 202 237 95 194 236 171 201 205 192 202 216 213 214 219 187 205 216 250 133 151 186 197 187 174 179 184 200 192 181 175 176 171 169 175 180 175 181 185 153 110 80 87 88 118 117 110 102 98 95 91 87 89 90 91 90 91 92 87 80 70 58 49 38 36 30 22 18 21 16 11 15 351 359 359 354 352 351 358 355 355 356 360 1 359
184 174 223 234 216 223 279 132 183 191 191 195 211 209 217 221 222 216 221 224 185 108 257 180 170 175 173 189 198 200 183 181 183 178 179 179 182 180 176 155 127 107 93 96 106 107 108 108 107 108 105 98 96 93 93 90 87 84 83 80 72 64 61 53 36 30 28 25 24 19 8 6 10 350 356 355 353 350 352 359 356 357 1 5 7 359
91 150 232 198 226 234 236 206 171 165 206 211 211 229 237 215 202 207 214 217 214 215 199 187 199 189 188 193 189 193 185 182 187 186 186 176 175 171 151 126 114 111 114 109 106 110 107 114 113 110 107 105 104 101 96 93 90 84 76 69 61 49 46 43 41 35 32 25 27 16 4 0 2 360 350 349 352 354 356 357 349 358 356 20 17 8
170 226 194 199 232 239 246 227 181 213 225 207 198 200 205 196 198 180 184 204 208 210 195 185 175 175 185 187 190 192 190 177 180 184 190 182 179 152 131 123 119 112 107 108 109 107 108 111 116 115 112 111 112 108 104 99 91 83 74 61 48 44 38 32 28 32 32 24 29 14 358 357 359 355 350 353 353 348 352 55 118 23 10 356 37 38
225 234 207 224 230 258 229 183 178 245 291 49 131 141 150 158 183 194 198 203 200 201 188 183 170 170 184 185 195 197 189 178 170 174 180 173 150 139 135 131 125 121 121 120 117 116 115 117 119 120 119 118 118 113 106 98 90 81 67 59 50 41 35 28 21 24 24 20 22 23 349 352 356 354 352 353 353 348 349 343 81 135 102 76 67 31